Weather History for PAED - August, 2013

Change the Weather History Date:

Saturday, August 3, 2013

  Actual Average (PANC) Record (PANC)
Temperature  
Mean Temperature 62 °F 59 °F  
Max Temperature 69 °F 65 °F 76 °F (2009)
Min Temperature 56 °F 52 °F 35 °F (1921)
Degree Days  
Heating Degree Days 2    
Month to date heating degree days  
Since 1 June heating degree days  
Since 1 July heating degree days  
Cooling Degree Days 0    
Month to date cooling degree days  
Year to date cooling degree days  
Since 1 June cooling degree days  
Growing Degree Days 12 (Base 50)    
Moisture  
Dew Point 51 °F    
Average Humidity 67    
Maximum Humidity 94    
Minimum Humidity 43    
Precipitation  
Precipitation 0.00 in 0.08 in 0.54 in (1939)
Month to date precipitation 0.25  
Year to date precipitation 6.29  
Snow  
Snow 0.00 in 0.00 in 0.00 in ()
Month to date snowfall 0.0  
Since 1 June snowfall 0.0  
Since 1 July snowfall 0.0  
Snow Depth -    
Sea Level Pressure  
Sea Level Pressure 29.80 in    
Wind  
Wind Speed 8 mph (NE)    
Max Wind Speed 17 mph    
Max Gust Speed -    
Visibility 10 miles    
Events Rain    
T = Trace of Precipitation, MM = Missing Value Source: NWS Daily Summary

Daily Weather History Graph

Daily Weather History Graph

Search for Another Location

Airport or City:

Trip Planner

Search our weather history database for the weather conditions in past years. The results will help you decide how hot, cold, wet, or windy it might be!

Date:

Astronomy

Aug. 03, 2013 Rise Set
Actual Time 5:37 AM AKDT 10:31 PM AKDT
Civil Twilight 4:33 AM AKDT 11:34 PM AKDT
Nautical Twilight 2:37 AM AKDT 1:32 AM AKDT
Astronomical Twilight Sun does not set Sun does not set
Moon 2:43 AM AKDT (8/3) 8:27 PM AKDT (8/3)
Length of Visible Light 19h 00m
Length of Day
16h 53m
Waning Crescent, 9% of the Moon is Illuminated
Aug 3
Waning Crescent
Aug 6
New
Aug 14
First Quarter
Aug 20
Full
Aug 28
Last Quarter

Hourly Weather History & Observations

Time (AKDT) Temp. Dew Point Humidity Pressure Visibility Wind Dir Wind Speed Gust Speed Precip Events Conditions
12:55 AM 61.5 °F 51.4 °F 69% 29.79 in 10.0 mi East 6.9 mph - N/A   Overcast
1:55 AM 61.3 °F 51.3 °F 69% 29.77 in 10.0 mi NE 6.9 mph - N/A   Mostly Cloudy
2:44 AM 59.0 °F 53.6 °F 82% 29.76 in 10.0 mi North 11.5 mph - N/A   Light Drizzle
2:55 AM 58.5 °F 54.7 °F 87% 29.78 in 10.0 mi WNW 9.2 mph - 0.00 in Rain Light Rain
3:31 AM 57.2 °F 53.6 °F 88% 29.77 in 10.0 mi WNW 8.1 mph - N/A   Mostly Cloudy
3:55 AM 58.3 °F 53.4 °F 84% 29.78 in 10.0 mi Calm Calm - 0.00 in   Mostly Cloudy
4:55 AM 57.4 °F 54.1 °F 89% 29.78 in 10.0 mi NNE 5.8 mph - N/A   Mostly Cloudy
5:55 AM 56.3 °F 54.7 °F 94% 29.79 in 10.0 mi East 5.8 mph - N/A   Partly Cloudy
6:55 AM 57.6 °F 54.1 °F 88% 29.79 in 10.0 mi NNE 4.6 mph - N/A   Scattered Clouds
7:55 AM 60.4 °F 54.7 °F 81% 29.78 in 10.0 mi NNE 4.6 mph - N/A   Mostly Cloudy
8:55 AM 65.1 °F 53.1 °F 65% 29.79 in 10.0 mi Calm Calm - N/A   Partly Cloudy
9:55 AM 63.0 °F 52.7 °F 69% 29.79 in 10.0 mi NW 8.1 mph - N/A   Mostly Cloudy
10:55 AM 63.7 °F 55.0 °F 73% 29.79 in 10.0 mi NW 6.9 mph - N/A   Scattered Clouds
11:55 AM 64.2 °F 51.4 °F 63% 29.79 in 10.0 mi ENE 9.2 mph - N/A   Mostly Cloudy
12:55 PM 65.1 °F 51.4 °F 61% 29.81 in 10.0 mi NW 6.9 mph - N/A   Scattered Clouds
1:31 PM 68.0 °F 46.4 °F 46% 29.81 in 10.0 mi ESE 17.3 mph - N/A   Mostly Cloudy
1:55 PM 68.5 °F 45.0 °F 43% 29.81 in 10.0 mi SSE 9.2 mph - N/A   Scattered Clouds
2:55 PM 67.5 °F 48.0 °F 50% 29.82 in 10.0 mi SE 8.1 mph - N/A   Overcast
3:55 PM 69.3 °F 45.9 °F 43% 29.82 in 10.0 mi SSE 9.2 mph - N/A   Overcast
4:55 PM 68.4 °F 46.0 °F 45% 29.83 in 10.0 mi SW 16.1 mph - N/A   Mostly Cloudy
5:55 PM 68.2 °F 45.9 °F 45% 29.83 in 10.0 mi SSW 15.0 mph - N/A   Mostly Cloudy
6:55 PM 68.4 °F 45.5 °F 44% 29.84 in 10.0 mi South 10.4 mph - N/A   Scattered Clouds